Regional Weather Roundup
Issued by NWS Green Bay, WI

Home | Current Version | Previous Version | Text Only | Print | Product List | Glossary On
Versions: 1 2 3 4 5 6 7 8 9 10 11 12 13 14 15 16 17 18 19 20 21 22 23 24 25 26 27 28 29 30 31 32 33 34 35 36 37 38 39 40 41 42 43 44 45 46 47 48 49 50
000
ASUS43 KGRB 300900
RWRGRB

NORTH-CENTRAL AND NORTHEAST WISCONSIN REGIONAL WEATHER ROUNDUP
NATIONAL WEATHER SERVICE GREEN BAY WI
400 AM CDT THU MAR 30 2017

WIZ005-009-010>012-018-019-301000-
NORTH CENTRAL WISCONSIN

CITY           SKY/WX    TMP DP  RH WIND       PRES   REMARKS
IRONWOOD       CLOUDY    35  28  75 CALM      30.09F
MANITOWISH WTR NOT AVBL
ARBOR VITAE    NOT AVBL
EAGLE RIVER    NOT AVBL
LAND O LAKES   NOT AVBL
RHINELANDER    CLOUDY    34  25  69 E8        30.06F
PHILLIPS       CLOUDY    35  24  66 E3        30.04F
ANTIGO         NOT AVBL
TOMAHAWK       NOT AVBL
MERRILL        NOT AVBL
$$

WIZ013-073-301000-
NORTHEAST WISCONSIN

CITY           SKY/WX    TMP DP  RH WIND       PRES   REMARKS
IRON MOUNTAIN  CLOUDY    34  24  67 NE6       30.10F
MARINETTE        N/A     36  31  82 E9        30.11F
$$

WIZ017-030-035>037-045-301000-
CENTRAL WISCONSIN

CITY           SKY/WX    TMP DP  RH WIND       PRES   REMARKS
MEDFORD        NOT AVBL
WAUSAU         LGT SNOW  33  31  92 E10       30.02F FOG
MOSINEE        NOT AVBL
MARSHFIELD     FLURRIES  34  32  92 E12       30.00F
WISC RAPIDS    FLURRIES  35  35 100 E8        30.03F
STEVENS POINT  NOT AVBL
WAUPACA        NOT AVBL
SHAWANO        FLURRIES  36  31  85 NE7       30.09F
CLINTONVILLE   DRIZZLE   34  32  93 NE6       30.07F
WAUTOMA        LGT RAIN  35  34  96 NE16      29.99F
$$

WIZ038-039-048-051-301000-
FOX VALLEY

CITY           SKY/WX    TMP DP  RH WIND       PRES   REMARKS
NWS GREEN BAY  LGT RAIN  36  36 100 NE7       30.07F
APPLETON       NOT AVBL
OSHKOSH        LGT RAIN  37  33  85 E10       30.01F
FOND DU LAC    LGT RAIN  38  32  79 E12       30.01F
$$

WIZ022-050-052-301000-
EAST CENTRAL WISCONSIN

CITY           SKY/WX    TMP DP  RH WIND       PRES   REMARKS
EPHRAIM        NOT AVBL
WASHINGTON ISL NOT AVBL
STURGEON BAY   CLOUDY    37  34  89 E5        30.07F
MANITOWOC      NOT AVBL
SHEBOYGAN      LGT RAIN  36  31  82 E13       30.03F
$$

LMZ563-521-522-541>543-301000-
LAKESHORE

STATION/POSITION TIME  TEMP    WIND        PRES    VSBY  WAVE
                       AIR SEA DIR/SP/G                  HT/PER
                 (UTC) (F)     (DEG/KT/KT) (MB)    (MI)  (FT/S)
SHEBOYGAN LKSHOR 0800   38      80/ 17/ 18 1017.7F
KEWAUNEE LKSHORE 0830   37      90/  8/ 10 1018.3F
NORTHPORT PIER   0840   36      90/ 14/ 17 1020.0F
CHAMBERS ISLAND  0840   36      80/ 10/ 14 1019.3F
MENOMINEE LKSHOR 0830   34      40/  9/ 10 1018.7F
$$




USA.gov is the U.S. government's official web portal to all federal, state and local government web resources and services.